Temp
83 96 101 96 85 87 80 83 88 85 88 95 96 93 91 92 87 79 96 95 97 99 94 89 80 80 81 80 80 80 81 81 81 81 80 80 80 80 80 80 80 81 82 82 82 82 82 82 82
99 97 99 96 83 76 80 88 85 90 94 97 95 95 92 89 95 95 96 94 97 97 94 93 80 80 81 80 80 80 80 80 81 81 80 80 80 80 80 80 81 82 82 82 82 82 82 82 82
97 97 93 90 89 79 79 88 91 93 94 94 93 95 94 89 93 95 97 95 98 96 96 91 80 80 80 80 80 80 80 80 80 80 80 80 80 80 80 80 81 82 82 82 82 82 82 82 82
99 98 95 86 81 86 85 90 92 92 95 97 96 92 95 96 94 96 97 97 98 99 98 83 80 80 80 80 80 80 80 80 80 80 80 80 80 80 80 80 80 81 82 82 82 82 81 81 81
100 97 88 87 84 88 92 94 94 92 94 96 96 92 89 92 95 96 96 98 98 99 99 92 80 80 80 80 80 80 80 80 80 80 80 80 80 80 79 80 80 81 81 82 82 81 81 80 81
93 94 85 81 83 90 94 95 95 94 95 94 95 92 89 95 94 95 98 98 100 97 97 92 81 80 80 80 80 79 79 79 79 80 80 80 80 80 79 80 80 80 81 81 81 81 80 80 80
90 89 83 83 83 86 90 98 94 93 94 92 96 90 92 93 95 97 98 96 98 97 98 95 92 85 80 80 79 79 79 79 79 79 79 79 79 79 79 79 80 80 80 80 80 80 79 79 79
95 92 83 85 83 84 93 97 98 95 93 98 99 89 91 92 95 98 98 98 99 98 99 98 96 95 93 92 80 79 79 79 79 79 79 79 79 79 79 78 78 79 79 79 79 79 79 78 78
95 87 86 83 84 87 95 93 98 99 97 92 92 89 90 92 96 98 97 97 97 96 98 98 97 98 97 98 89 80 79 79 79 80 79 80 90 92 89 85 82 79 79 79 79 78 78 78 78
91 88 84 89 90 88 91 90 91 92 93 90 92 91 90 93 95 95 96 95 96 95 96 100 97 96 97 95 94 92 93 93 92 92 90 92 93 93 91 86 80 79 79 79 78 78 78 79 90
91 87 89 90 89 91 89 88 91 90 84 84 87 87 91 93 92 91 91 92 94 96 100 97 94 92 96 96 94 94 95 89 88 87 86 90 92 93 93 93 93 90 83 90 88 87 87 91 92
86 90 90 89 91 89 86 88 84 83 82 88 89 91 90 88 88 89 89 88 92 94 92 96 95 92 92 96 91 91 92 90 89 89 85 86 85 87 85 88 91 90 92 91 91 92 92 92 92
87 88 89 89 90 89 89 83 82 82 87 90 89 87 86 86 86 88 87 91 91 90 91 85 89 91 87 87 91 88 87 87 88 87 87 88 85 83 83 83 85 87 89 87 86 87 89 89 90
89 87 87 89 87 89 85 83 84 83 87 85 85 85 85 85 86 86 85 86 86 85 87 88 78 74 91 82 83 84 79 81 86 86 86 82 83 83 84 85 86 85 87 89 89 88 87 87 88
89 84 86 87 88 86 88 79 78 85 87 80 77 83 82 83 84 82 84 80 86 85 83 83 81 84 77 78 75 73 71 71 76 80 79 80 79 78 78 81 85 85 88 88 87 86 87 86 87
86 86 80 84 86 86 87 72 78 86 85 81 81 82 81 80 83 85 86 85 85 86 84 85 86 82 79 79 83 84 81 75 73 74 74 78 79 80 80 83 82 80 80 82 81 83 80 78 76
83 79 80 79 86 85 85 74 79 85 84 81 82 79 79 79 78 81 83 84 85 84 85 86 85 85 85 83 85 85 81 81 82 80 77 77 79 80 79 81 81 77 76 74 75 77 79 79 79
78 78 80 79 82 84 82 75 78 82 83 80 79 77 79 78 78 79 81 83 84 83 83 83 84 83 85 87 86 87 87 86 80 80 79 79 77 74 76 75 73 76 78 75 72 70 74 75 77
83 82 78 78 82 81 78 75 76 81 82 79 79 75 75 76 78 79 79 78 81 82 81 80 80 79 83 84 84 84 83 84 85 85 82 78 77 75 71 72 74 75 74 74 74 71 71 70 74
84 80 77 78 80 80 77 74 77 78 78 79 78 77 76 76 77 78 79 80 79 79 80 79 78 78 79 83 81 81 82 83 83 84 81 81 80 79 73 69 68 70 71 71 70 70 71 75 74
82 79 78 77 78 82 78 71 73 77 78 79 78 78 78 77 76 77 77 78 80 78 79 78 78 77 77 78 81 80 81 82 82 81 82 80 80 80 78 76 74 73 71 68 70 72 70 69 74
77 84 82 78 77 72 79 67 71 75 73 76 77 76 77 76 77 79 79 77 78 79 80 79 78 77 79 77 78 74 76 75 78 80 81 78 79 79 79 78 76 72 69 66 65 65 64 68 71
78 83 82 80 78 75 74 71 70 76 71 74 76 76 77 78 79 79 79 80 82 83 82 80 79 77 77 77 75 76 73 76 78 78 75 76 78 78 79 79 77 74 71 72 70 66 65 65 64
85 81 80 79 78 68 71 72 70 74 73 74 77 79 78 80 80 80 82 83 83 85 84 81 78 76 76 76 75 73 71 71 72 73 74 77 78 79 78 78 75 74 72 71 72 70 65 63 64
84 78 69 66 67 66 72 71 69 74 77 78 78 79 80 82 81 81 82 83 83 83 82 82 78 75 75 75 74 73 71 70 69 70 72 70 73 75 73 71 73 72 73 72 70 66 64 63 62
80 78 70 57 64 68 72 66 69 76 78 80 80 80 80 80 82 82 82 82 82 81 80 81 79 77 76 75 73 73 71 72 71 67 64 63 62 64 61 65 68 71 71 69 68 65 64 63 61
78 78 80 70 71 67 72 71 74 77 76 77 77 77 76 78 79 79 80 78 78 78 79 79 78 77 75 73 72 71 70 67 64 60 57 57 57 56 56 60 60 60 64 62 63 62 64 63 59
81 82 72 75 59 57 67 65 68 68 70 73 74 74 75 77 77 76 76 77 80 80 80 78 77 75 74 73 72 70 67 66 63 61 57 54 53 53 53 56 58 59 60 62 60 56 55 54 52
80 79 74 73 70 61 60 64 69 67 69 70 73 75 76 73 77 77 78 80 80 80 80 76 75 74 71 70 69 65 64 61 59 59 57 55 52 51 52 53 55 56 56 57 57 55 51 50 48
80 74 73 67 64 71 65 62 71 71 72 73 74 76 76 76 78 79 80 79 77 76 76 75 72 70 70 68 63 60 58 55 53 53 56 55 52 52 52 53 53 55 56 55 53 52 53 51 49
MSLP
1010.79 1009.81 1009.03 1007.92 1006.03 1003.70 1002.62 1002.71 1003.26 1002.58 1002.12 1002.42 1002.54 1002.42 1002.60 1002.84 1003.06 1004.27 1006.45 1007.24 1007.11 1007.39 1008.75 1010.04 1010.78 1011.08 1011.36 1011.67 1011.88 1011.98 1012.21 1012.43 1012.79 1013.05 1013.42 1013.64 1013.83 1014.07 1014.25 1014.59 1014.87 1014.97 1015.13 1015.28 1015.47 1015.57 1015.68 1015.76 1015.82
1009.52 1009.24 1008.28 1006.36 1004.06 1002.59 1002.26 1002.75 1002.49 1002.32 1002.29 1002.53 1002.59 1002.48 1002.42 1003.12 1004.49 1005.08 1005.91 1007.57 1007.61 1008.06 1009.11 1009.79 1011.05 1011.42 1011.69 1011.92 1012.11 1012.23 1012.33 1012.54 1012.88 1013.26 1013.60 1013.88 1014.12 1014.28 1014.37 1014.57 1014.85 1015.01 1015.15 1015.34 1015.51 1015.70 1015.80 1015.96 1016.09
1009.49 1008.91 1006.93 1004.96 1003.30 1002.28 1002.46 1002.50 1002.28 1002.25 1002.43 1002.43 1002.26 1002.98 1003.32 1004.46 1005.43 1005.88 1007.13 1007.70 1007.87 1008.52 1009.23 1010.11 1011.31 1011.59 1011.89 1012.11 1012.33 1012.40 1012.42 1012.67 1013.00 1013.32 1013.79 1014.09 1014.26 1014.37 1014.47 1014.64 1014.90 1015.10 1015.28 1015.44 1015.56 1015.76 1015.92 1016.01 1016.21
1008.62 1007.69 1006.65 1004.15 1002.89 1003.00 1002.89 1002.72 1002.48 1002.09 1002.06 1002.26 1002.29 1002.41 1004.53 1006.06 1006.06 1006.86 1007.67 1007.98 1008.24 1008.47 1009.20 1011.08 1011.81 1012.08 1012.24 1012.39 1012.58 1012.76 1012.80 1012.92 1013.23 1013.47 1013.77 1014.05 1014.21 1014.33 1014.52 1014.78 1015.05 1015.27 1015.41 1015.55 1015.76 1015.89 1016.08 1016.15 1016.23
1008.25 1006.65 1004.31 1003.23 1002.88 1002.98 1002.90 1002.74 1002.39 1001.82 1001.84 1001.81 1002.65 1003.04 1004.84 1006.54 1007.16 1007.55 1007.90 1007.94 1008.06 1008.64 1009.20 1010.95 1012.02 1012.25 1012.30 1012.51 1012.68 1012.94 1013.05 1013.19 1013.31 1013.55 1013.77 1013.98 1014.14 1014.31 1014.58 1014.83 1015.01 1015.16 1015.34 1015.47 1015.65 1015.85 1016.01 1016.19 1016.32
1006.66 1006.04 1003.50 1002.51 1002.80 1002.85 1002.82 1002.65 1002.16 1001.88 1002.16 1002.67 1002.61 1003.42 1005.32 1006.64 1007.08 1007.69 1007.94 1008.06 1008.30 1008.81 1009.29 1010.64 1012.02 1012.39 1012.60 1012.82 1013.01 1013.17 1013.28 1013.36 1013.49 1013.64 1013.84 1014.14 1014.32 1014.64 1014.85 1015.09 1015.24 1015.37 1015.49 1015.54 1015.59 1015.73 1015.86 1016.02 1016.11
1006.04 1004.90 1003.65 1003.17 1002.85 1002.95 1003.06 1002.66 1002.29 1002.10 1002.23 1002.92 1003.53 1003.55 1005.34 1006.50 1007.49 1007.88 1008.27 1008.79 1008.86 1009.22 1009.31 1010.20 1011.10 1011.98 1012.67 1012.99 1013.22 1013.44 1013.63 1013.89 1013.95 1014.06 1014.17 1014.41 1014.56 1014.88 1015.15 1015.45 1015.60 1015.76 1015.84 1015.78 1015.75 1015.73 1015.76 1015.80 1015.87
1006.26 1005.18 1003.77 1003.57 1003.13 1003.24 1003.42 1002.71 1002.87 1002.92 1003.13 1003.83 1003.93 1004.29 1005.31 1007.32 1007.94 1008.04 1008.45 1008.70 1008.92 1009.27 1009.31 1009.73 1010.20 1010.90 1011.46 1012.03 1013.15 1013.55 1013.72 1014.04 1014.34 1014.58 1014.79 1015.04 1015.03 1015.23 1015.30 1015.45 1015.45 1015.52 1015.64 1015.63 1015.61 1015.51 1015.50 1015.51 1015.49
1006.80 1004.60 1003.42 1003.85 1003.75 1003.66 1003.99 1003.28 1003.41 1003.77 1003.44 1004.90 1005.93 1006.86 1007.87 1008.31 1008.01 1007.82 1008.10 1008.45 1008.92 1009.45 1009.55 1009.77 1010.03 1010.12 1010.53 1010.63 1012.00 1013.11 1013.46 1013.66 1013.82 1014.08 1014.31 1014.46 1013.95 1013.62 1014.11 1014.31 1014.80 1015.18 1015.37 1015.39 1015.42 1015.46 1015.49 1015.44 1015.37
1005.94 1004.34 1004.28 1004.88 1004.87 1004.67 1004.87 1004.84 1004.64 1004.25 1004.19 1005.43 1005.97 1007.64 1008.37 1008.20 1007.80 1007.82 1007.86 1008.18 1008.48 1008.93 1009.49 1009.62 1009.85 1010.21 1010.40 1010.62 1011.06 1011.62 1011.74 1012.15 1012.41 1012.65 1012.84 1013.03 1012.85 1012.87 1013.18 1013.67 1014.29 1014.54 1014.68 1014.71 1014.69 1014.70 1014.77 1014.93 1014.15
1005.58 1004.43 1005.07 1005.30 1005.79 1005.48 1005.46 1005.81 1006.17 1005.22 1006.17 1007.40 1006.85 1007.98 1008.21 1008.14 1008.67 1009.37 1009.52 1009.39 1009.18 1009.04 1009.05 1009.39 1010.20 1010.57 1010.10 1010.33 1010.63 1010.77 1010.92 1011.82 1012.35 1012.77 1013.10 1012.78 1012.75 1012.67 1012.69 1012.57 1012.55 1012.84 1013.29 1013.23 1013.12 1013.26 1013.35 1012.95 1012.60
1005.35 1005.50 1005.62 1005.83 1005.78 1005.82 1006.28 1006.79 1007.44 1007.87 1008.77 1008.91 1008.64 1008.74 1008.92 1009.34 1009.71 1009.96 1010.01 1010.04 1009.72 1009.52 1009.57 1009.43 1009.75 1011.01 1011.19 1010.49 1011.55 1011.78 1011.40 1011.84 1011.98 1012.03 1012.58 1012.65 1013.01 1012.93 1013.43 1013.05 1012.32 1012.15 1012.04 1011.92 1012.11 1011.85 1011.60 1011.58 1011.64
1005.54 1005.77 1006.12 1006.41 1006.59 1006.80 1007.30 1007.71 1008.19 1008.92 1009.49 1009.72 1009.82 1009.98 1010.10 1010.38 1010.68 1010.96 1010.95 1010.56 1010.51 1010.30 1010.29 1010.37 1009.88 1011.54 1012.12 1012.16 1011.72 1012.24 1012.48 1012.83 1012.83 1012.88 1012.68 1011.95 1012.09 1012.58 1012.88 1012.61 1012.24 1012.04 1011.69 1011.54 1011.57 1011.48 1011.39 1011.38 1011.24
1005.87 1006.07 1006.32 1006.48 1006.83 1007.07 1007.50 1008.21 1008.46 1009.82 1010.18 1010.49 1010.70 1010.91 1011.24 1011.56 1011.58 1011.79 1011.68 1011.37 1011.54 1011.57 1011.48 1011.61 1011.82 1011.35 1011.46 1011.83 1012.04 1012.12 1013.37 1012.93 1012.72 1012.54 1012.06 1012.75 1011.95 1011.51 1011.48 1011.33 1010.87 1010.79 1010.58 1010.63 1010.73 1010.59 1010.39 1010.50 1010.76
1006.02 1005.86 1006.29 1006.56 1006.65 1007.00 1007.39 1008.34 1009.35 1010.08 1010.48 1011.36 1011.88 1011.91 1012.36 1012.53 1012.86 1012.93 1012.61 1011.80 1012.48 1012.43 1012.60 1012.41 1012.32 1012.21 1011.89 1011.46 1012.94 1013.04 1014.29 1011.90 1012.70 1012.29 1011.47 1011.82 1011.90 1011.12 1010.99 1010.86 1010.75 1010.48 1010.35 1010.20 1009.84 1010.34 1010.33 1010.37 1010.06
1005.33 1005.45 1005.09 1006.42 1006.87 1007.06 1007.06 1008.75 1010.20 1010.36 1010.85 1011.44 1012.05 1012.66 1013.11 1013.44 1013.78 1013.71 1013.56 1013.14 1013.26 1012.77 1012.63 1012.53 1012.18 1012.04 1010.96 1011.11 1011.75 1012.42 1012.69 1013.66 1013.48 1013.08 1012.39 1011.97 1012.09 1011.88 1011.34 1010.91 1010.96 1011.10 1011.17 1010.97 1010.79 1010.05 1010.44 1010.05 1010.27
1004.90 1003.86 1004.55 1006.05 1006.64 1006.71 1006.81 1008.89 1010.52 1010.72 1011.19 1011.59 1012.42 1013.14 1013.78 1014.22 1014.63 1014.76 1014.47 1014.00 1013.74 1013.60 1013.28 1012.93 1012.74 1012.56 1012.33 1012.37 1012.29 1012.33 1012.77 1012.73 1012.28 1012.08 1012.01 1012.15 1011.84 1011.54 1011.35 1010.85 1010.58 1011.01 1011.14 1011.16 1011.04 1010.58 1010.05 1009.66 1009.54
1003.18 1003.72 1004.57 1005.28 1006.49 1006.75 1007.38 1009.41 1010.63 1011.08 1011.40 1012.12 1013.10 1013.75 1014.05 1014.56 1014.92 1015.33 1015.31 1014.90 1014.70 1014.50 1014.40 1014.23 1013.80 1013.56 1013.08 1012.67 1012.42 1012.33 1012.00 1011.97 1012.23 1012.07 1012.02 1011.76 1011.53 1011.49 1010.95 1010.72 1010.84 1010.64 1010.41 1010.39 1010.29 1010.42 1010.08 1009.83 1009.28
1003.57 1003.83 1004.98 1006.52 1007.23 1007.32 1008.36 1009.62 1010.68 1011.24 1011.80 1012.42 1013.18 1014.08 1014.57 1015.18 1015.26 1015.83 1016.07 1015.90 1015.40 1015.24 1015.18 1015.03 1014.56 1014.12 1013.50 1013.06 1012.69 1012.29 1012.06 1011.85 1011.61 1011.33 1011.48 1011.62 1011.41 1011.05 1010.87 1010.41 1010.10 1010.09 1009.95 1009.74 1009.62 1009.49 1009.35 1009.40 1009.12
1003.76 1004.22 1005.52 1006.91 1007.55 1007.71 1008.69 1009.67 1010.67 1011.37 1012.10 1012.71 1013.30 1013.95 1014.62 1015.23 1015.55 1015.96 1016.04 1016.08 1015.92 1015.74 1015.51 1015.40 1015.24 1014.89 1014.39 1013.81 1013.65 1013.45 1012.91 1012.34 1012.08 1011.51 1011.36 1010.95 1010.65 1010.24 1010.09 1010.09 1009.95 1009.70 1009.22 1009.13 1009.24 1008.96 1008.50 1007.99 1008.07
1004.02 1004.10 1005.30 1005.79 1007.32 1007.69 1008.36 1009.24 1010.31 1011.39 1012.20 1012.94 1013.63 1014.12 1014.51 1014.97 1015.44 1015.80 1016.10 1016.13 1015.97 1015.92 1015.79 1015.73 1015.57 1015.36 1015.23 1014.79 1014.06 1013.68 1012.99 1012.27 1011.59 1011.27 1010.71 1010.59 1010.35 1009.80 1009.32 1009.33 1009.27 1009.18 1009.09 1008.83 1008.48 1008.26 1008.02 1007.62 1007.32
1004.02 1004.75 1005.14 1005.97 1006.26 1006.07 1007.74 1007.34 1009.28 1010.60 1011.78 1012.46 1013.25 1014.01 1014.60 1015.21 1015.51 1015.48 1015.62 1016.01 1016.12 1016.00 1016.05 1016.04 1015.85 1015.63 1015.14 1014.98 1014.25 1013.97 1013.12 1012.30 1011.91 1011.05 1010.72 1010.78 1010.01 1009.45 1008.94 1008.68 1008.77 1008.75 1008.67 1008.51 1008.40 1008.18 1008.04 1007.56 1006.84
1004.79 1005.26 1005.33 1005.67 1005.71 1006.28 1006.98 1007.27 1008.40 1009.94 1011.06 1011.96 1012.97 1013.83 1014.45 1015.03 1015.00 1015.24 1015.51 1015.61 1015.44 1015.26 1015.23 1015.55 1015.57 1015.57 1015.30 1014.99 1014.81 1014.27 1013.77 1013.04 1012.20 1011.48 1010.82 1010.15 1009.42 1009.28 1008.79 1008.35 1008.39 1008.20 1008.37 1007.98 1007.91 1007.99 1007.80 1007.39 1007.22
1005.35 1005.46 1005.68 1005.95 1005.60 1005.42 1006.56 1007.21 1007.37 1008.71 1010.17 1011.52 1012.23 1013.17 1014.10 1014.37 1014.74 1015.16 1015.20 1015.05 1015.15 1015.21 1015.08 1015.18 1015.38 1015.43 1015.36 1015.11 1014.84 1014.56 1014.11 1013.57 1012.72 1011.89 1011.04 1009.84 1009.62 1008.99 1008.80 1008.55 1008.47 1008.17 1008.04 1007.82 1007.67 1007.51 1007.44 1007.33 1006.97
1005.01 1004.96 1004.44 1004.65 1004.79 1004.97 1007.11 1007.47 1008.73 1009.98 1010.82 1011.31 1011.78 1012.80 1013.67 1014.01 1014.41 1014.54 1014.68 1014.68 1014.78 1014.91 1015.13 1015.09 1015.43 1015.32 1015.37 1015.29 1015.09 1014.88 1014.68 1014.21 1013.49 1012.79 1011.79 1011.16 1010.00 1009.27 1009.22 1009.38 1008.64 1008.23 1007.80 1007.55 1007.58 1007.57 1007.48 1007.29 1006.78
1004.83 1004.89 1004.60 1004.73 1004.62 1005.13 1007.26 1007.23 1009.44 1010.84 1011.56 1011.91 1012.62 1013.33 1013.89 1014.30 1014.41 1014.52 1014.75 1015.10 1015.01 1015.00 1015.03 1015.03 1014.94 1014.87 1015.14 1015.21 1015.16 1014.98 1014.84 1014.28 1013.79 1013.80 1013.85 1013.19 1012.55 1011.65 1011.28 1010.35 1009.38 1008.33 1007.86 1007.78 1007.56 1007.57 1007.33 1007.07 1006.77
1005.07 1005.09 1006.20 1005.94 1006.06 1006.16 1006.58 1008.65 1010.27 1011.13 1011.92 1012.57 1013.13 1013.89 1014.40 1014.78 1014.95 1015.09 1015.42 1015.70 1015.47 1015.15 1015.10 1015.12 1015.21 1015.31 1015.38 1015.40 1015.26 1015.05 1014.92 1014.90 1014.92 1014.92 1014.94 1014.31 1013.72 1013.00 1011.99 1010.79 1010.01 1009.41 1008.84 1008.57 1008.38 1007.91 1007.41 1007.24 1007.32
1005.75 1006.51 1006.20 1005.83 1006.10 1006.40 1006.81 1008.69 1009.62 1011.72 1012.53 1013.19 1013.66 1014.31 1014.99 1015.25 1015.60 1015.88 1015.93 1015.81 1015.56 1015.52 1015.45 1015.75 1016.04 1016.05 1016.05 1015.98 1015.91 1015.83 1015.86 1015.88 1015.74 1015.59 1015.39 1015.07 1014.45 1013.63 1012.57 1011.55 1010.64 1009.96 1009.54 1009.02 1008.73 1008.70 1008.66 1008.44 1008.51
1006.05 1006.07 1007.10 1007.44 1007.65 1007.72 1008.01 1009.81 1012.60 1013.26 1013.85 1014.11 1014.43 1014.84 1015.35 1015.86 1015.72 1016.01 1015.98 1015.74 1015.97 1016.11 1016.08 1016.45 1016.51 1016.53 1016.70 1016.73 1016.70 1016.90 1016.87 1016.84 1016.73 1016.15 1015.88 1015.62 1014.98 1014.21 1013.26 1012.44 1011.48 1010.77 1010.46 1010.10 1009.67 1009.61 1009.72 1009.66 1009.56
1007.56 1007.87 1007.97 1007.83 1008.00 1008.58 1009.90 1011.83 1013.88 1014.36 1014.64 1014.87 1014.94 1015.44 1015.89 1016.21 1016.13 1015.91 1016.10 1016.30 1016.59 1016.68 1016.78 1016.60 1017.35 1017.29 1017.34 1017.41 1017.85 1017.87 1017.86 1017.71 1017.45 1017.04 1016.28 1016.08 1015.58 1015.07 1014.06 1013.25 1012.50 1011.84 1011.47 1011.21 1010.87 1010.64 1010.59 1010.48 1010.43
Wind_Speed
12 9 5 7 9 8 7 8 5 4 1 5 5 9 12 10 15 9 5 7 5 13 15 15 11 12 12 11 11 10 10 12 13 13 13 14 14 14 14 13 11 12 11 10 9 9 9 9 9
6 5 7 5 9 3 10 7 7 8 5 7 3 7 3 12 12 8 6 6 9 13 13 14 12 11 12 12 12 11 12 12 11 11 12 12 13 13 14 13 12 12 12 10 9 9 9 8 7
5 6 7 6 3 12 7 10 10 7 6 7 2 1 7 13 10 7 10 8 11 12 13 13 11 11 12 12 12 12 13 12 12 12 11 12 12 12 12 11 11 11 11 10 10 9 8 8 6
5 6 6 8 8 11 10 11 10 2 4 5 2 5 10 11 5 7 11 10 11 12 12 17 9 8 10 11 11 11 12 13 13 14 13 13 12 11 11 10 10 10 10 9 9 8 7 7 7
6 4 5 1 9 7 9 12 7 3 3 4 2 14 8 8 9 10 10 9 11 10 11 14 9 9 9 11 11 10 11 11 12 13 13 13 12 11 10 10 11 11 10 9 9 8 7 7 6
6 4 6 7 11 10 13 9 6 4 5 8 5 5 8 6 9 9 9 9 11 12 11 15 12 9 6 6 7 7 7 8 9 9 10 9 8 8 8 9 9 9 9 8 9 8 8 8 8
7 6 8 4 6 14 14 8 10 4 3 11 3 8 5 10 9 9 10 9 9 10 10 12 14 12 9 7 5 4 3 3 4 5 5 6 6 6 6 7 7 8 8 8 9 9 9 9 10
5 5 3 5 6 13 13 11 8 11 13 5 10 8 11 12 8 9 9 8 9 9 9 10 9 14 13 13 11 7 5 4 3 3 2 3 3 5 7 5 9 10 10 11 11 11 11 11 12
3 6 5 8 8 10 14 12 12 6 7 15 11 16 13 9 6 8 8 8 7 5 5 6 8 8 10 8 14 11 9 8 7 9 9 9 10 11 14 12 6 10 11 12 12 12 12 12 13
8 5 8 7 6 7 11 17 11 8 10 13 12 16 11 8 7 10 11 8 8 5 2 2 6 6 8 7 9 9 10 10 9 8 7 9 10 7 6 6 7 10 13 14 14 14 14 14 13
3 6 4 10 6 5 4 12 17 12 18 18 13 14 12 12 17 14 13 11 10 6 1 7 6 6 9 8 7 5 6 4 5 6 5 7 6 7 7 7 8 11 18 11 15 15 14 17 14
6 4 8 8 6 4 8 7 18 19 15 13 16 16 16 15 13 12 11 10 11 15 13 11 1 4 7 3 3 5 5 6 7 8 8 6 5 5 7 6 8 7 8 9 9 9 12 13 14
6 4 4 7 12 14 13 19 16 17 14 15 16 18 17 16 17 14 14 15 14 16 17 10 14 10 8 4 3 5 6 3 6 6 7 7 8 7 7 9 9 10 10 9 10 10 11 13 15
3 2 8 9 6 12 17 16 7 13 13 17 18 20 20 21 18 15 16 18 18 16 17 15 9 10 7 3 4 4 6 7 4 6 4 8 8 10 11 12 14 13 13 12 11 12 11 11 13
4 11 12 11 11 10 3 18 15 11 14 18 17 18 20 17 18 18 17 17 16 16 14 13 11 7 3 7 4 4 2 6 5 6 8 10 9 8 9 10 11 10 10 12 9 10 11 12 12
8 11 12 9 9 2 9 13 10 12 12 17 17 17 18 20 19 18 18 19 16 16 17 16 14 11 13 11 9 5 2 4 6 6 5 8 10 11 11 10 9 7 6 8 8 8 8 7 7
11 11 7 10 4 3 4 14 8 11 12 15 16 16 16 18 18 15 15 17 17 17 17 17 16 16 13 10 7 5 2 5 5 5 5 11 12 14 12 11 10 8 7 7 8 10 10 11 12
9 8 7 10 4 6 13 15 10 9 13 15 15 14 15 16 16 14 14 15 14 15 14 14 13 13 9 5 4 3 4 2 4 6 8 12 11 13 13 10 10 11 12 9 7 9 9 10 10
3 8 12 12 9 9 13 13 11 10 13 14 14 14 14 13 13 11 10 10 12 12 12 13 14 14 11 10 10 9 10 8 9 7 8 10 11 12 10 10 10 11 11 10 9 9 12 10 10
8 12 13 8 6 8 13 12 10 9 10 12 12 12 11 10 9 8 8 8 9 10 11 12 12 12 11 9 9 9 9 8 8 8 10 11 13 13 8 9 9 10 10 10 11 10 11 10 9
6 2 10 11 9 8 10 11 11 10 10 11 10 9 8 7 6 6 6 7 8 9 10 10 10 10 10 12 9 9 10 10 11 11 11 12 15 13 13 12 8 9 8 8 10 11 12 11 9
9 2 3 11 12 5 12 1 11 13 9 6 9 8 7 5 3 4 4 4 6 7 6 8 9 9 9 10 11 13 11 13 12 12 11 12 15 14 13 13 11 8 5 6 6 6 8 12 12
7 2 4 8 8 6 12 10 13 11 10 10 8 8 6 5 3 5 5 5 4 7 7 8 9 9 10 11 11 11 13 12 13 14 16 14 10 14 15 12 12 11 6 9 8 7 9 8 8
9 8 6 4 5 11 6 8 13 8 5 8 8 9 7 5 5 4 1 4 8 10 10 10 11 10 10 11 12 13 14 15 14 16 16 15 14 12 13 16 13 13 9 9 8 9 9 8 9
6 8 8 7 7 4 3 8 12 7 5 3 4 10 6 2 5 3 8 10 10 12 12 10 9 10 10 12 13 14 15 16 17 17 16 20 16 13 14 17 16 12 11 11 8 7 8 7 7
5 7 8 5 3 5 5 2 10 6 5 4 7 6 4 4 8 9 12 14 15 15 14 14 13 12 12 13 14 13 15 12 13 16 14 13 14 15 17 14 15 17 13 10 9 6 5 6 5
6 2 4 7 6 9 5 7 7 6 7 5 7 5 7 10 10 15 16 15 14 15 16 16 15 15 16 18 16 17 17 18 15 14 12 10 13 13 14 14 11 11 12 10 12 8 8 5 7
5 5 6 3 6 9 6 3 9 8 7 6 6 7 8 11 13 12 12 13 14 15 14 12 12 14 14 15 15 16 17 17 16 14 15 14 12 13 13 13 12 11 11 11 10 8 11 11 10
5 4 2 5 5 7 6 9 6 7 7 6 7 8 12 10 11 12 10 11 15 15 13 10 12 15 16 15 15 16 15 15 15 14 14 15 12 13 13 13 13 13 13 13 11 11 9 10 12
10 6 4 6 3 1 7 7 6 6 6 6 7 10 10 13 12 12 15 16 15 11 10 11 13 13 14 14 11 10 11 11 12 13 14 15 15 15 14 13 14 13 15 15 14 12 12 11 11
Wind_Direction
164 197 247 243 246 243 77 71 352 319 267 13 311 300 353 322 351 22 55 83 129 143 143 163 155 153 147 140 133 123 130 143 155 158 162 157 155 156 150 153 159 165 170 171 170 168 166 168 169
175 214 231 280 262 190 85 17 341 331 336 308 303 282 269 46 31 76 102 99 146 130 146 159 152 153 148 141 137 134 128 131 142 151 154 154 155 155 152 155 167 174 178 182 180 179 182 188 189
225 256 269 282 287 33 19 7 352 339 284 260 242 356 7 36 51 57 94 122 146 145 151 133 157 152 152 147 145 142 135 133 138 142 148 152 153 155 155 163 174 183 186 191 192 195 196 195 189
225 200 216 267 44 62 18 354 344 332 144 211 309 73 109 39 48 49 108 122 139 148 147 123 151 152 151 155 155 150 145 144 148 151 154 157 158 157 161 170 179 191 195 199 207 206 210 211 207
227 244 242 151 79 45 25 357 359 20 43 112 315 71 73 60 79 106 110 130 134 133 136 143 149 162 165 172 167 163 156 154 155 158 161 164 165 167 171 180 189 197 204 206 212 213 215 222 226
221 276 231 65 69 59 29 18 13 20 67 40 37 51 67 110 108 114 113 114 124 132 139 136 149 159 171 187 183 180 171 165 163 164 166 168 170 182 190 199 206 212 219 220 223 222 220 218 219
287 262 49 20 62 51 24 17 44 50 47 46 1 57 102 107 96 98 100 101 115 132 139 148 165 163 169 182 192 202 200 207 183 176 175 184 185 198 209 224 232 238 245 243 241 238 229 223 221
284 270 185 45 10 53 21 59 9 23 58 99 354 33 65 93 103 104 104 117 112 133 129 146 177 175 184 171 178 191 190 206 240 260 278 281 251 242 234 261 230 248 254 255 250 247 241 235 231
272 241 84 41 7 18 23 10 21 3 55 57 61 40 46 76 110 105 107 106 93 81 111 151 175 191 196 195 156 175 194 198 194 203 198 203 234 210 208 215 241 222 250 257 256 256 257 255 250
255 275 53 31 18 7 48 34 359 349 89 23 356 79 87 97 87 56 53 53 49 62 63 251 199 198 208 195 197 194 193 206 206 214 212 219 231 254 318 319 190 223 238 246 247 244 246 249 256
144 8 29 46 13 340 59 50 27 358 50 17 57 86 92 88 62 60 59 42 32 18 235 216 205 210 219 204 207 214 207 179 182 203 232 252 276 254 226 237 215 218 208 236 218 219 222 234 244
249 60 13 24 56 79 64 72 55 53 53 52 67 73 74 77 65 61 50 42 30 26 12 338 313 229 266 237 199 251 254 203 212 193 189 197 213 235 249 267 269 258 250 252 253 257 254 257 260
240 55 86 100 94 88 92 73 71 67 65 70 73 71 72 71 69 69 72 54 41 49 33 37 42 17 322 259 255 259 276 276 272 249 227 207 201 217 237 242 243 245 246 245 250 256 258 256 252
82 33 127 139 111 102 89 73 95 66 75 71 69 72 70 64 68 72 63 57 48 45 60 71 122 90 266 254 310 351 323 284 251 296 259 234 216 205 218 224 221 226 230 234 239 237 236 243 255
155 130 124 138 142 136 124 68 68 81 82 79 70 76 73 71 60 58 62 69 49 59 52 60 65 87 175 57 344 23 273 286 294 232 209 233 236 225 231 237 243 244 261 255 231 251 249 251 245
189 184 180 142 188 75 240 92 73 87 90 91 89 84 76 62 58 53 58 69 68 66 65 60 57 50 40 29 28 7 336 219 235 246 255 262 257 265 264 263 261 276 280 273 263 260 277 280 265
188 188 193 150 203 146 269 118 106 98 99 93 89 80 75 77 65 54 54 57 56 52 48 55 54 55 56 47 35 21 301 271 282 271 278 272 275 278 271 275 278 280 280 272 266 268 258 263 261
149 144 159 124 98 191 121 111 106 111 106 94 85 83 79 72 67 59 51 53 54 53 49 46 47 41 55 65 62 30 343 275 268 283 270 284 283 277 265 261 271 278 270 253 245 247 259 263 265
135 148 115 117 80 103 118 122 120 120 110 107 102 90 83 74 76 63 55 42 51 51 49 39 42 32 18 16 6 1 355 347 334 322 311 296 284 289 283 283 273 259 262 258 263 264 245 245 249
142 133 116 112 147 144 143 127 131 128 110 104 103 100 100 94 77 69 66 61 51 46 39 36 33 33 24 18 9 358 340 333 319 320 319 313 317 305 280 263 270 279 271 261 247 249 263 257 248
151 136 178 128 155 152 154 156 152 139 135 122 106 107 108 97 103 90 64 51 52 45 34 34 30 27 25 358 6 354 337 337 339 333 323 346 318 317 307 304 294 297 294 288 282 259 266 266 237
175 206 183 153 193 212 215 309 181 163 160 151 151 130 129 125 143 120 97 58 40 25 43 30 36 18 33 17 3 349 343 338 331 323 330 320 321 322 315 309 303 299 285 277 272 269 259 273 260
65 154 205 193 236 235 179 259 111 162 169 147 154 143 136 160 127 78 57 48 65 31 45 44 40 28 22 11 1 346 347 335 331 329 332 312 311 318 318 316 312 306 294 302 293 283 276 259 264
130 127 143 226 230 233 103 283 137 154 145 138 158 137 150 151 133 88 72 64 36 30 28 42 20 24 10 360 358 352 343 336 333 330 319 325 326 321 324 329 323 310 296 292 293 287 280 275 275
231 202 210 206 204 29 111 251 51 85 80 14 124 126 144 117 77 38 25 10 20 21 22 10 18 2 6 359 354 350 347 333 336 329 331 326 321 325 333 335 318 314 304 299 301 288 284 290 296
39 323 2 309 313 52 145 304 87 60 55 88 75 88 67 36 30 20 28 12 9 6 11 356 352 360 7 359 354 354 347 343 332 353 337 336 338 334 332 316 307 318 314 324 314 307 306 315 323
120 303 15 294 195 261 76 118 145 87 69 70 67 49 38 31 22 19 20 14 2 1 358 352 357 1 3 358 356 353 354 353 356 356 351 341 342 336 330 337 356 2 359 360 356 337 318 358 13
339 88 249 232 306 314 126 260 56 25 19 29 39 39 33 24 22 22 11 8 359 352 341 9 358 5 358 355 356 359 355 359 2 3 6 359 353 347 345 353 6 15 12 4 23 24 29 41 35
173 179 38 289 311 326 306 77 22 39 40 41 33 26 32 7 3 12 350 358 354 352 3 11 3 2 360 353 3 354 1 1 0 4 6 6 345 359 357 1 10 30 28 23 32 47 47 58 66
52 37 352 319 29 81 280 83 42 44 52 24 17 29 9 360 9 348 358 0 358 7 1 11 6 358 357 354 9 359 8 4 5 355 3 16 3 6 4 8 14 24 39 42 44 53 60 67 68